Temperature
22 22 21 21 21 20 20 19 19 19 19 19 18 18 18 18 18 18 18 18 18 18 18 18 18 18 18 18 18 18 18 17 17 17 17 17 17 17 17 17 17 17 17
22 21 21 21 21 20 20 20 19 19 19 19 19 18 18 18 18 18 18 18 18 18 18 18 18 18 18 18 18 18 18 17 17 17 17 17 17 17 17 17 17 17 17
22 21 21 21 21 20 20 20 20 19 19 19 19 18 18 18 18 18 18 18 18 18 18 18 18 18 18 18 18 18 18 18 18 17 17 17 17 17 17 17 17 17 17
22 22 21 21 21 21 20 20 20 19 19 19 19 19 18 18 18 18 18 18 18 18 18 18 18 18 18 18 18 18 18 18 18 17 17 17 17 17 17 17 17 17 17
22 22 22 21 21 21 21 20 20 20 19 19 19 19 19 19 18 18 18 18 18 18 18 18 18 18 18 18 18 18 18 18 18 17 17 17 17 17 17 17 17 17 17
22 22 22 21 21 21 21 20 20 20 19 19 19 19 19 19 18 18 18 18 18 18 18 18 18 18 18 18 18 18 18 18 17 17 17 17 17 17 17 17 17 17 17
23 22 21 21 21 21 21 20 20 20 19 19 19 19 19 19 19 19 18 18 18 18 18 18 18 18 18 18 18 18 17 17 17 17 17 17 17 17 17 17 17 17 17
22 22 22 22 22 21 21 20 20 20 20 19 19 19 19 19 19 18 18 18 18 18 18 18 18 18 18 18 18 18 17 17 17 17 17 17 17 17 17 17 17 17 17
23 22 22 22 22 21 21 21 20 20 20 20 19 19 19 19 19 18 18 18 18 18 18 18 18 18 18 17 17 17 17 17 17 17 17 17 17 17 17 17 17 17 16
23 22 22 22 22 22 21 21 21 20 20 20 20 19 19 19 19 18 18 18 18 18 18 18 18 18 18 17 17 17 17 17 17 17 17 17 17 17 17 17 17 17 17
23 23 22 22 22 22 22 21 21 20 20 20 20 19 19 19 18 18 18 18 18 18 18 18 18 18 18 17 17 17 17 17 17 17 17 17 17 17 17 17 17 16 16
23 22 22 22 21 21 21 21 21 20 20 20 19 19 19 19 19 18 18 18 18 18 18 18 18 18 18 17 17 17 17 17 17 17 16 17 17 17 17 16 16 16 16
23 22 22 22 21 21 21 21 21 20 20 20 19 19 19 19 18 18 18 18 18 18 18 18 18 18 17 17 17 17 17 17 17 16 16 16 16 16 16 16 16 16 16
22 22 22 21 21 21 21 21 20 20 20 20 20 19 19 19 18 18 18 18 18 18 17 17 17 17 17 17 17 17 17 17 16 16 16 16 16 16 16 16 16 16 16
22 22 21 21 21 21 21 21 20 20 20 20 19 19 19 19 18 18 18 18 18 18 17 17 17 17 17 17 17 17 17 17 16 16 16 16 16 16 16 16 16 16 16
21 21 21 21 21 21 20 20 20 20 20 19 19 19 19 19 18 18 18 18 18 17 17 17 17 17 17 17 17 17 16 16 16 16 16 16 16 16 16 16 15 15 15
20 21 21 21 20 20 20 20 20 20 19 19 19 19 19 18 18 18 18 18 18 17 17 17 17 17 17 16 16 16 16 16 16 16 16 15 15 15 15 15 15 15 15
20 20 20 20 20 20 20 20 19 19 19 19 19 19 18 18 18 18 18 18 17 17 17 17 17 17 16 16 16 16 16 16 16 15 15 15 15 15 15 15 15 15 15
20 20 20 20 19 19 19 19 19 19 19 18 18 18 18 18 18 18 17 17 17 17 17 17 16 16 16 16 16 16 16 15 15 15 15 15 15 15 15 15 15 15 15
19 19 19 19 19 18 18 18 18 18 18 18 18 18 17 17 17 17 17 17 17 16 16 16 16 16 16 16 16 15 15 15 15 15 15 15 15 15 14 14 14 14 14
18 19 18 18 18 18 18 18 17 17 17 17 17 17 17 17 17 17 16 16 16 16 16 16 16 15 15 15 15 15 15 15 15 15 15 15 14 14 14 14 14 14 14
18 18 18 17 17 17 17 17 17 17 17 17 16 16 16 16 16 16 16 16 16 15 15 15 15 15 15 15 15 15 15 14 14 14 14 14 14 14 14 14 14 14 14
17 17 17 17 17 17 17 17 16 16 16 16 16 16 15 15 15 15 15 15 15 15 15 15 14 14 15 15 14 14 14 14 14 14 14 14 14 14 14 13 13 13 13
17 17 17 17 16 16 16 16 16 16 16 15 15 15 15 15 15 15 15 14 14 14 14 14 14 14 14 14 14 14 14 13 13 13 13 13 13 13 13 13 13 12 12
16 16 16 16 16 16 16 16 15 15 15 15 15 15 15 14 14 14 14 14 14 14 14 13 13 13 13 13 13 13 13 13 13 13 13 13 13 13 13 13 12 12 12
16 15 15 15 15 15 15 15 15 15 15 14 14 14 14 14 14 14 14 13 13 13 13 13 13 13 13 13 12 12 12 12 12 12 12 12 12 12 12 12 12 12 12
Wind_Speed
11 11 12 12 11 9 8 8 7 6 5 4 3 3 3 2 2 3 5 6 5 5 5 4 3 3 3 3 4 3 3 2 2 3 2 2 1 1 2 3 4 6 8
9 11 11 12 11 11 9 9 8 7 6 4 3 3 3 3 3 2 3 5 5 5 5 4 3 3 3 3 3 3 3 1 2 3 2 1 3 2 1 2 3 4 5
14 13 12 11 11 11 11 10 9 8 7 5 4 3 3 2 2 1 2 3 5 5 4 4 4 3 4 3 4 4 4 3 1 2 3 3 3 1 2 1 2 3 3
13 13 13 12 13 12 11 10 9 8 7 6 5 6 5 4 3 3 3 3 4 4 4 4 4 3 3 3 4 4 3 4 2 1 1 2 3 3 1 2 1 2 4
15 15 15 14 13 12 11 10 9 8 7 7 7 6 4 3 2 2 3 3 2 3 4 4 4 3 3 3 3 2 3 3 3 3 2 1 1 2 3 2 2 1 2
14 13 12 11 11 11 10 10 10 8 7 7 7 7 6 5 4 4 4 3 2 2 2 3 3 3 2 3 3 3 3 3 3 3 2 3 2 3 2 3 2 2 3
12 13 12 12 12 13 12 11 11 9 8 8 7 7 7 6 6 5 5 4 3 2 3 3 3 2 3 3 3 3 2 3 3 3 3 3 3 3 3 3 2 2 2
10 13 14 13 13 14 13 12 11 10 9 9 8 6 6 5 4 5 5 5 4 4 4 3 3 3 3 3 3 2 2 2 2 3 3 2 3 2 3 3 3 2 2
11 11 11 11 12 13 12 12 12 10 10 9 8 7 6 6 5 5 4 4 4 4 4 4 4 3 3 3 3 2 2 2 3 3 3 2 2 2 2 3 3 4 3
9 9 11 12 12 12 11 11 11 11 10 9 8 7 6 5 5 5 5 4 4 4 4 4 4 4 3 3 4 2 2 3 2 2 2 2 2 2 2 2 2 3 4
10 11 10 11 10 10 10 10 10 9 9 9 8 6 6 5 5 5 5 5 4 4 4 4 4 4 4 3 3 3 3 3 3 2 2 3 2 2 2 2 2 2 3
8 9 10 10 9 9 10 10 10 9 9 8 7 7 6 6 6 6 5 5 5 4 5 5 4 4 4 4 4 4 4 4 3 3 3 4 3 3 3 2 3 3 3
6 7 8 8 8 8 8 9 9 10 8 8 7 6 6 6 6 6 5 5 5 5 5 4 5 5 5 4 4 5 4 4 4 4 4 4 3 3 3 3 3 3 3
4 6 6 7 7 7 7 7 7 8 8 7 7 6 6 6 6 6 6 6 6 6 5 5 5 5 5 5 5 4 4 4 4 4 4 4 4 5 4 4 4 3 2
5 4 4 5 6 6 6 7 7 7 7 7 7 7 6 6 6 6 6 6 6 6 5 5 4 4 4 4 5 5 5 5 4 4 4 4 5 5 5 4 3 3 3
6 5 4 5 6 6 6 6 6 7 7 8 8 7 6 6 6 7 6 6 6 6 5 5 5 4 4 5 6 6 4 4 5 5 4 5 5 5 6 5 5 4 4
6 5 5 5 5 6 6 6 6 6 7 7 7 6 6 6 5 6 5 6 6 6 5 5 5 5 5 5 5 6 5 4 5 5 4 4 4 4 4 4 4 5 6
5 5 4 4 3 3 4 4 4 5 6 5 5 6 6 5 5 4 5 5 5 5 5 5 5 5 5 5 5 5 5 4 4 5 5 5 4 4 3 3 3 4 5
4 4 4 4 4 4 4 4 4 4 4 5 5 5 6 6 5 5 5 5 4 4 5 4 5 5 5 5 6 6 4 4 4 4 4 4 4 4 4 3 3 4 5
4 4 4 5 5 3 5 5 3 3 3 4 4 4 5 5 6 6 5 4 4 4 4 4 4 5 5 5 6 7 4 4 4 3 3 3 4 4 4 4 4 5 6
4 4 4 4 3 3 4 5 4 3 3 3 3 3 3 4 4 4 3 3 4 3 3 3 3 3 4 5 5 6 4 4 4 3 3 4 5 5 5 5 5 7 6
4 4 4 3 2 2 4 3 2 2 1 2 2 2 2 3 3 2 2 2 3 3 2 2 1 1 2 2 3 4 5 4 3 4 4 4 5 5 5 5 6 6 4
3 4 5 4 2 2 3 3 1 1 2 2 1 1 1 1 1 2 2 2 2 2 1 1 1 2 2 2 1 2 2 3 3 3 3 4 4 4 4 5 4 3 2
4 4 5 4 2 1 2 2 2 2 3 2 1 1 2 1 1 1 2 2 2 2 1 1 2 2 2 1 1 1 1 1 1 2 3 3 3 1 2 2 2 2 2
3 3 3 3 2 1 1 1 2 3 3 2 1 1 2 2 1 1 1 1 2 3 4 3 3 2 2 4 4 2 3 2 2 1 1 1 1 2 2 2 2 2 1
3 3 3 2 2 2 2 1 1 3 3 2 1 1 1 1 2 2 2 3 1 2 4 3 3 3 4 4 4 3 2 1 2 3 1 1 1 2 2 2 2 2 2
Wind_Direction
169 162 160 157 152 150 148 150 150 156 150 142 139 131 132 139 140 152 161 161 158 150 143 140 142 141 140 152 146 131 131 137 130 100 58 5 310 214 203 195 188 192 197
162 164 163 161 160 160 157 155 158 161 162 161 159 154 149 154 162 154 156 162 160 161 156 146 154 155 149 150 151 140 138 160 142 132 115 41 354 335 258 193 186 192 193
170 170 168 169 166 166 167 166 164 163 164 156 138 127 103 96 104 122 150 166 163 166 161 157 159 158 158 167 177 168 160 165 183 157 146 152 207 274 320 227 195 189 190
175 173 172 173 176 175 172 166 165 166 168 162 154 149 150 158 182 177 169 171 171 168 165 160 162 157 161 173 192 181 169 156 179 217 189 175 166 168 253 319 270 219 213
179 178 178 180 179 176 174 169 164 168 169 167 165 162 164 173 163 153 153 165 178 180 176 172 170 168 173 179 180 169 168 162 173 185 183 177 178 164 164 229 277 286 241
179 178 175 173 177 175 172 170 168 172 173 169 167 168 169 168 155 157 166 177 180 185 190 177 169 171 170 178 183 184 177 179 175 180 176 173 177 191 178 201 224 242 256
175 172 173 174 177 175 174 173 172 176 177 174 174 177 179 176 175 176 179 177 180 192 206 186 175 172 177 176 175 181 192 191 186 192 195 193 199 183 169 171 210 235 261
176 176 178 174 173 173 173 174 177 180 180 179 180 180 179 179 184 183 181 186 192 200 194 180 175 177 183 184 174 186 203 205 208 210 199 199 213 185 176 178 179 221 276
174 178 178 172 170 170 174 177 179 180 182 183 180 180 180 180 181 179 179 186 194 198 189 186 183 184 185 181 177 192 201 202 215 218 212 213 229 211 200 185 177 179 226
174 180 182 176 174 171 169 172 177 181 181 182 185 188 188 185 179 172 175 181 189 192 182 187 186 190 195 188 186 194 201 201 226 218 214 235 248 243 225 208 201 188 192
178 183 185 180 174 166 168 170 177 178 179 182 184 185 184 184 177 178 188 190 184 178 177 185 187 194 199 197 192 204 197 205 228 237 226 241 239 244 244 223 212 209 191
177 180 177 170 167 171 176 177 179 178 179 177 176 182 182 182 186 191 193 188 185 187 186 187 188 198 202 200 199 211 210 208 222 236 236 250 249 248 248 233 231 227 214
159 167 162 167 171 173 176 176 178 180 179 172 169 173 183 188 197 199 196 193 191 192 191 191 195 203 203 199 202 205 208 210 218 224 226 241 243 253 258 248 246 244 237
145 154 155 169 174 171 170 174 179 176 173 171 171 179 189 194 200 201 198 197 196 195 198 199 201 200 200 201 202 204 209 216 226 227 225 229 227 237 246 247 247 237 235
127 143 157 168 167 166 168 169 171 170 170 169 178 191 195 194 193 198 204 201 200 207 204 200 206 206 206 209 204 211 214 219 232 239 236 234 229 232 232 239 240 229 226
134 138 147 152 158 166 166 165 166 167 165 172 184 188 186 193 200 200 199 199 206 210 204 204 209 214 226 221 206 202 215 220 227 239 245 248 243 247 246 245 236 218 218
127 138 159 160 164 168 162 162 166 165 167 178 183 182 183 193 202 200 193 199 207 208 210 212 209 218 232 225 211 204 209 218 225 227 234 251 256 246 252 260 258 250 239
132 134 139 140 145 141 145 149 150 153 166 178 187 189 186 191 195 196 203 209 204 205 211 210 211 217 233 221 209 204 208 220 232 227 220 227 248 250 238 252 266 268 262
130 137 132 125 114 114 120 117 122 148 165 184 192 192 186 186 190 200 208 208 200 204 208 208 208 216 237 226 214 203 215 226 240 241 232 222 227 240 221 220 251 273 279
98 110 113 101 102 110 117 117 127 141 174 202 201 196 188 187 196 206 212 208 198 207 207 213 214 215 230 228 217 204 207 221 239 250 249 235 231 242 218 210 227 257 266
93 91 100 104 112 125 129 136 146 179 199 194 182 176 177 189 198 204 208 201 196 194 203 211 227 230 234 233 217 202 204 218 229 240 250 254 256 254 242 227 229 247 254
97 91 92 90 81 94 116 132 168 205 150 128 145 162 174 192 194 176 184 174 167 168 183 188 232 275 277 259 223 203 209 212 211 232 244 256 267 264 257 247 254 261 256
106 100 99 92 76 77 106 129 183 124 103 90 125 146 146 159 165 172 174 154 146 156 177 176 226 273 298 306 268 196 200 212 216 244 260 277 286 275 262 265 272 261 235
105 103 95 96 99 107 104 138 146 114 105 111 159 150 129 126 125 154 158 152 160 166 178 193 247 266 293 307 327 303 276 291 272 290 302 310 311 290 283 295 282 257 232
102 103 105 116 126 107 93 107 123 114 107 104 114 118 124 135 113 85 85 152 178 179 180 204 220 228 259 260 238 209 235 231 220 201 6 354 342 324 316 306 297 287 289
108 95 93 114 121 109 97 81 112 125 120 105 87 110 133 130 123 104 66 50 120 143 162 181 191 231 242 267 260 249 242 242 144 123 142 268 274 272 276 288 297 293 285
Height
1516 1518 1519 1520 1522 1523 1524 1526 1527 1528 1529 1530 1530 1531 1532 1532 1534 1534 1536 1537 1538 1539 1540 1541 1542 1543 1544 1545 1547 1548 1549 1550 1550 1551 1552 1552 1553 1553 1554 1554 1555 1556 1557
1516 1517 1518 1519 1520 1522 1523 1525 1526 1528 1529 1530 1531 1532 1533 1534 1535 1536 1536 1538 1539 1540 1541 1542 1542 1544 1545 1546 1547 1548 1548 1549 1550 1551 1551 1552 1554 1553 1553 1553 1554 1555 1555
1512 1514 1516 1517 1519 1520 1522 1523 1525 1527 1529 1531 1532 1533 1534 1535 1535 1536 1537 1538 1539 1540 1541 1542 1543 1544 1545 1545 1546 1547 1548 1549 1550 1551 1552 1552 1552 1552 1553 1552 1553 1553 1554
1509 1511 1513 1515 1517 1518 1521 1522 1524 1527 1528 1530 1531 1532 1533 1534 1535 1536 1537 1538 1539 1540 1541 1542 1543 1544 1545 1545 1546 1547 1548 1548 1549 1550 1550 1551 1551 1551 1550 1551 1552 1552 1553
1506 1508 1510 1512 1514 1517 1519 1521 1524 1526 1528 1529 1531 1532 1533 1534 1536 1537 1538 1538 1539 1540 1541 1542 1542 1543 1544 1545 1546 1546 1547 1548 1548 1548 1549 1549 1550 1550 1550 1549 1550 1551 1551
1504 1506 1508 1511 1513 1516 1518 1520 1523 1525 1527 1528 1530 1531 1533 1534 1535 1536 1537 1538 1539 1539 1540 1541 1542 1542 1543 1544 1544 1545 1546 1547 1547 1547 1548 1548 1548 1548 1548 1548 1548 1548 1549
1501 1504 1507 1508 1511 1513 1516 1519 1521 1523 1525 1527 1529 1530 1532 1533 1534 1535 1536 1537 1538 1538 1539 1540 1540 1541 1542 1542 1543 1544 1544 1545 1545 1546 1546 1547 1547 1547 1547 1547 1546 1547 1547
1501 1502 1503 1504 1507 1510 1513 1516 1519 1521 1523 1525 1527 1529 1530 1532 1533 1534 1535 1536 1537 1538 1538 1539 1539 1540 1540 1541 1541 1542 1543 1543 1543 1544 1544 1545 1545 1545 1545 1545 1545 1545 1544
1498 1500 1502 1504 1506 1508 1511 1514 1517 1520 1522 1524 1525 1527 1529 1530 1531 1533 1534 1535 1536 1537 1537 1537 1538 1538 1539 1539 1540 1540 1540 1541 1541 1541 1542 1542 1543 1543 1543 1543 1544 1544 1542
1496 1499 1501 1502 1504 1507 1510 1513 1516 1518 1519 1522 1524 1525 1527 1528 1530 1531 1532 1533 1534 1535 1535 1536 1536 1537 1537 1537 1538 1538 1539 1539 1539 1539 1540 1540 1540 1540 1541 1541 1541 1541 1541
1494 1497 1499 1501 1503 1506 1509 1511 1514 1516 1518 1520 1522 1523 1525 1527 1528 1529 1530 1531 1532 1533 1533 1534 1534 1535 1535 1536 1536 1536 1536 1537 1537 1537 1537 1537 1538 1538 1538 1538 1538 1538 1538
1493 1496 1499 1501 1503 1505 1507 1509 1511 1513 1516 1518 1520 1521 1523 1524 1525 1526 1527 1529 1530 1530 1531 1532 1532 1533 1533 1534 1534 1534 1534 1534 1534 1535 1535 1535 1535 1535 1535 1535 1535 1535 1534
1491 1494 1497 1499 1501 1503 1505 1507 1509 1511 1514 1516 1517 1519 1520 1522 1522 1523 1525 1526 1527 1528 1529 1530 1530 1530 1531 1531 1531 1532 1532 1532 1532 1532 1532 1532 1532 1532 1532 1532 1532 1531 1531
1490 1492 1494 1498 1500 1501 1503 1505 1507 1509 1511 1513 1514 1516 1517 1518 1520 1521 1522 1523 1524 1525 1526 1526 1527 1528 1528 1528 1529 1529 1529 1530 1529 1529 1530 1530 1530 1529 1529 1529 1528 1528 1528
1490 1492 1494 1496 1499 1500 1501 1503 1505 1507 1509 1510 1512 1513 1515 1516 1517 1518 1519 1520 1521 1522 1523 1524 1524 1525 1525 1526 1526 1526 1526 1526 1526 1527 1527 1527 1527 1526 1526 1526 1525 1525 1525
1488 1490 1493 1495 1497 1498 1499 1500 1502 1504 1506 1508 1509 1510 1511 1513 1514 1514 1515 1517 1518 1519 1520 1520 1521 1521 1522 1522 1523 1523 1523 1523 1523 1523 1523 1523 1523 1523 1523 1522 1522 1522 1521
1487 1488 1490 1492 1494 1496 1497 1498 1499 1502 1503 1505 1505 1506 1508 1509 1510 1511 1512 1513 1514 1515 1516 1517 1517 1518 1518 1519 1519 1519 1519 1519 1520 1520 1520 1520 1519 1519 1519 1518 1518 1518 1517
1486 1488 1489 1490 1492 1494 1496 1497 1498 1499 1501 1502 1502 1503 1504 1505 1507 1508 1509 1510 1511 1512 1512 1513 1513 1514 1514 1515 1516 1516 1516 1516 1515 1516 1516 1515 1515 1515 1515 1515 1514 1513 1513
1486 1488 1489 1490 1491 1493 1494 1495 1496 1497 1498 1499 1499 1500 1501 1502 1503 1504 1505 1506 1507 1508 1509 1509 1510 1510 1510 1511 1511 1512 1512 1511 1511 1511 1511 1511 1511 1511 1511 1511 1510 1509 1509
1487 1488 1489 1490 1491 1492 1493 1493 1494 1495 1496 1496 1496 1497 1498 1499 1500 1501 1502 1503 1504 1504 1505 1505 1506 1506 1506 1507 1507 1507 1507 1507 1507 1507 1507 1507 1507 1507 1507 1506 1506 1505 1505
1486 1487 1488 1488 1489 1490 1491 1491 1492 1493 1493 1494 1494 1494 1495 1496 1497 1497 1498 1499 1500 1500 1501 1502 1502 1502 1502 1503 1503 1503 1503 1503 1503 1503 1503 1503 1503 1502 1502 1502 1502 1501 1501
1486 1487 1487 1488 1489 1489 1490 1490 1490 1490 1491 1492 1492 1492 1493 1494 1494 1494 1495 1495 1496 1497 1497 1498 1498 1498 1498 1499 1498 1499 1499 1498 1498 1498 1498 1498 1498 1498 1498 1497 1497 1497 1497
1485 1486 1486 1487 1488 1488 1489 1488 1488 1489 1489 1490 1490 1490 1490 1491 1492 1492 1492 1492 1492 1493 1493 1494 1494 1494 1494 1494 1494 1494 1494 1494 1494 1493 1493 1494 1494 1493 1493 1493 1492 1492 1492
1484 1485 1485 1485 1486 1487 1487 1487 1487 1487 1487 1488 1488 1488 1489 1489 1490 1490 1489 1489 1489 1489 1490 1490 1491 1490 1490 1490 1490 1489 1490 1490 1490 1490 1490 1489 1489 1489 1489 1488 1488 1488 1487
1484 1484 1484 1484 1485 1485 1486 1486 1486 1486 1485 1485 1486 1487 1487 1487 1487 1487 1487 1487 1487 1487 1488 1488 1487 1487 1486 1486 1486 1486 1485 1485 1485 1486 1486 1486 1485 1485 1484 1484 1484 1483 1483
1484 1484 1484 1484 1484 1484 1485 1485 1485 1484 1484 1484 1484 1485 1485 1485 1485 1485 1485 1485 1486 1485 1485 1485 1485 1483 1483 1482 1482 1483 1482 1482 1481 1481 1482 1482 1482 1481 1481 1480 1480 1479 1479